User: anonymous   Login
Location: Geroldsau
(48.7259°N, 8.2466°E)
Time: 05:48:45
(UTC+00:00)
Language:

IRS-1D - Orbit

View from above orbital plane
View from above orbital plane
View from above satellite
View from above satellite

Ground track
Ground track

The orbit data is extracted from the following two-line orbital elements,

1 24971U 97057A   21265.60417812  .00000028  00000-0  25676-4 0  9996
2 24971  98.6159 213.4889 0052447 285.2799  74.2602 14.34048555254766
Epoch (UTC): 22 September 2021 14:30:00
Eccentricity: 0.0052447
inclination: 98.6159°
perigee height: 741 km
apogee height: 816 km
right ascension of ascending node: 213.4889°
argument of perigee: 285.2799°
revolutions per day: 14.34048555
mean anomaly at epoch: 74.2602°
orbit number at epoch: 25476

The dashed part of the orbit path shows where the satellite is in the earth's shadow,  

DLR